Harrison, AR

3:54 PM CDT on June 17, 2019 (GMT -0500)
Boone County

Weather History for KHRO - May, 2019

Change the Weather History Date:

Saturday, May 18, 2019

  Actual Average Record
Temperature  
Mean Temperature 70 °F 66 °F  
Max Temperature 78 °F 77 °F 92 °F (1927)
Min Temperature 61 °F 56 °F 37 °F (2002)
Degree Days  
Heating Degree Days 0 2  
Month to date heating degree days 59 58  
Since 1 July heating degree days 3988 3979  
Cooling Degree Days 4 4  
Month to date cooling degree days 43 45  
Year to date cooling degree days 86 82  
Growing Degree Days 20 (Base 50)    
Moisture  
Dew Point 61 °F    
Average Humidity 81    
Maximum Humidity 97    
Minimum Humidity 68    
Precipitation  
Precipitation 0.23 in 0.14 in 1.55 in (1978)
Month to date precipitation 4.20 2.90  
Year to date precipitation 22.29 16.21  
Snow  
Snow 0.00 in 0.00 in - ()
Month to date snowfall 0.0 0.0  
Since 1 July snowfall 4.5 11.5  
Snow Depth 0.00 in    
Sea Level Pressure  
Sea Level Pressure 29.75 in    
Wind  
Wind Speed 10 mph ()    
Max Wind Speed 23 mph    
Max Gust Speed 40 mph    
Visibility 9.8 miles    
Events Rain , Thunderstorm    
T = Trace of Precipitation, MM = Missing Value Source: Averaged Metar Reports

Daily Weather History Graph

Daily Weather History Graph

Search for Another Location

Airport or City:

Astronomy

May. 18, 2019 Rise Set
Actual Time 6:04 AM CDT 8:14 PM CDT
Civil Twilight 5:35 AM CDT 8:43 PM CDT
Nautical Twilight 4:59 AM CDT 9:18 PM CDT
Astronomical Twilight 4:21 AM CDT 9:57 PM CDT
Moon 8:12 PM CDT (5/18) 6:08 AM CDT (5/18)
Length of Visible Light 15h 08m
Length of Day
14h 10m
Full, 100% of the Moon is Illuminated
May 18
Full
May 18
Full
May 26
Last Quarter
Jun 3
New
Jun 10
First Quarter

Hourly Weather History & Observations

Time (CDT) Temp. Dew Point Humidity Pressure Visibility Wind Dir Wind Speed Gust Speed Precip Events Conditions
12:53 AM 64.0 °F 55.9 °F 75% 29.80 in 10.0 mi SSE 8.1 mph - N/A   Clear
1:53 AM 66.9 °F 55.9 °F 68% 29.78 in 10.0 mi South 8.1 mph - N/A   Clear
2:53 AM 68.0 °F 57.0 °F 68% 29.78 in 10.0 mi South 10.4 mph - N/A   Clear
3:53 AM 69.1 °F 59.0 °F 70% 29.78 in 10.0 mi South 11.5 mph - N/A   Clear
4:53 AM 69.1 °F 61.0 °F 75% 29.78 in 10.0 mi South 12.7 mph - N/A   Clear
5:53 AM 68.0 °F 62.1 °F 81% 29.79 in 10.0 mi South 11.5 mph - N/A   Clear
6:53 AM 69.1 °F 63.0 °F 81% 29.81 in 10.0 mi South 10.4 mph - N/A   Clear
7:53 AM 71.1 °F 64.9 °F 81% 29.79 in 10.0 mi South 10.4 mph - N/A   Clear
8:53 AM 73.0 °F 64.9 °F 76% 29.80 in 10.0 mi South 12.7 mph - N/A   Clear
9:53 AM 73.9 °F 64.0 °F 71% 29.81 in 10.0 mi South 13.8 mph 28.8 mph N/A   Partly Cloudy
10:53 AM 73.9 °F 64.9 °F 73% 29.80 in 10.0 mi SSE 15.0 mph 21.9 mph N/A   Partly Cloudy
11:53 AM 75.0 °F 64.9 °F 71% 29.78 in 10.0 mi South 16.1 mph - N/A   Mostly Cloudy
12:53 PM 75.0 °F 64.9 °F 71% 29.76 in 10.0 mi SSE 18.4 mph 26.5 mph N/A   Overcast
1:53 PM 73.9 °F 64.9 °F 73% 29.73 in 10.0 mi South 18.4 mph 26.5 mph N/A   Overcast
2:01 PM 73.9 °F 64.9 °F 73% 29.77 in 10.0 mi South 11.5 mph 23.0 mph N/A   Overcast
2:53 PM 73.9 °F 64.9 °F 73% 29.70 in 10.0 mi SSE 19.6 mph 24.2 mph N/A   Overcast
3:04 PM 75.0 °F 66.0 °F 73% 29.74 in 10.0 mi South 17.3 mph - N/A   Overcast
3:43 PM 62.1 °F 59.0 °F 90% 29.80 in - West 13.8 mph 40.3 mph 0.08 in Rain , Thunderstorm Thunderstorms and Rain
3:53 PM 61.0 °F 59.0 °F 93% 29.79 in 4.0 mi West 10.4 mph 23.0 mph 0.10 in Rain , Thunderstorm Light Rain
4:28 PM 61.0 °F 59.0 °F 93% 29.78 in 10.0 mi Variable 5.8 mph - 0.04 in Rain Light Rain
4:53 PM 62.1 °F 59.0 °F 90% 29.72 in 10.0 mi NW 5.8 mph - 0.04 in Rain Light Rain
5:53 PM 62.1 °F 57.9 °F 86% 29.72 in 10.0 mi South 5.8 mph - 0.02 in Rain Light Rain
6:53 PM 61.0 °F 59.0 °F 93% 29.68 in 10.0 mi SE 12.7 mph - 0.05 in Rain Light Rain
7:53 PM 61.0 °F 60.1 °F 97% 29.65 in 10.0 mi South 12.7 mph - 0.01 in   Scattered Clouds
8:53 PM 61.0 °F 59.0 °F 93% 29.59 in 10.0 mi SSE 18.4 mph 28.8 mph 0.01 in Rain Light Rain
9:53 PM 62.1 °F 59.0 °F 90% 29.67 in 10.0 mi SSE 9.2 mph - 0.00 in   Mostly Cloudy
10:53 PM 62.1 °F 59.0 °F 90% 29.69 in 10.0 mi SSE 10.4 mph - N/A   Mostly Cloudy
11:53 PM 61.0 °F 59.0 °F 93% 29.67 in 10.0 mi SE 6.9 mph - N/A   Partly Cloudy